When you browse on this site, cookies collect data to enhance your experience and personalize the content and advertising you see.
Visit our Privacy Policy to learn more. By continuing to use the site, you agree to this use of cookies and data.

Hourly Weather Ouahigouya

Today, 22 September, Tuesday

Time Temperature Precipitation Wind Pressure Humidity
00:00 +29°C° 0 mm 3 mps 730 mmHg 59%
01:00 +29°C° 0 mm 3 mps 729 mmHg 61%
02:00 +28°C° 0 mm 3 mps 729 mmHg 62%
03:00 +28°C° 0 mm 3 mps 729 mmHg 64%
04:00 +27°C° 0 mm 3 mps 729 mmHg 66%
05:00 +27°C° 0 mm 3 mps 729 mmHg 69%
06:00 +27°C° 0 mm 2 mps 729 mmHg 71%
07:00 +28°C° 0 mm 3 mps 730 mmHg 67%
08:00 +30°C° 0 mm 3 mps 731 mmHg 63%
09:00 +32°C° 0 mm 4 mps 731 mmHg 59%
10:00 +34°C° 0 mm 4 mps 731 mmHg 53%
11:00 +35°C° 0 mm 3 mps 731 mmHg 47%
12:00 +36°C° 0 mm 3 mps 730 mmHg 41%
13:00 +37°C° 0 mm 2 mps 730 mmHg 38%
14:00 +38°C° 0 mm 2 mps 729 mmHg 36%
15:00 +38°C° 0 mm 2 mps 728 mmHg 33%
16:00 +37°C° 0 mm 2 mps 728 mmHg 35%
17:00 +37°C° 0 mm 2 mps 728 mmHg 37%
18:00 +36°C° 0 mm 2 mps 728 mmHg 38%
19:00 +33°C° 0.8 mm 4 mps 729 mmHg 49%
20:00 +30°C° 0.8 mm 7 mps 730 mmHg 59%
21:00 +27°C° 0.8 mm 9 mps 730 mmHg 70%
22:00 +27°C° 0.5 mm 6 mps 730 mmHg 65%
23:00 +28°C° 0.5 mm 4 mps 730 mmHg 61%

Tomorrow, 23 September, Wednesday

Time Temperature Precipitation Wind Pressure Humidity
00:00 +29°C° 0.5 mm 1 mps 730 mmHg 56%
01:00 +29°C° 0 mm 1 mps 730 mmHg 58%
02:00 +28°C° 0 mm 1 mps 729 mmHg 60%
03:00 +28°C° 0 mm 1 mps 729 mmHg 61%
04:00 +28°C° 0 mm 1 mps 729 mmHg 62%
05:00 +28°C° 0 mm 1 mps 729 mmHg 63%
06:00 +27°C° 0 mm 2 mps 729 mmHg 65%
07:00 +29°C° 0 mm 2 mps 730 mmHg 60%
08:00 +30°C° 0 mm 2 mps 730 mmHg 56%
09:00 +31°C° 0 mm 2 mps 731 mmHg 51%
10:00 +34°C° 0 mm 3 mps 730 mmHg 46%
11:00 +36°C° 0 mm 3 mps 730 mmHg 41%
12:00 +37°C° 0 mm 4 mps 730 mmHg 36%
13:00 +38°C° 0 mm 4 mps 729 mmHg 34%
14:00 +39°C° 0 mm 5 mps 729 mmHg 33%
15:00 +40°C° 0 mm 6 mps 728 mmHg 31%
16:00 +39°C° 0 mm 5 mps 728 mmHg 36%
17:00 +36°C° 0 mm 5 mps 728 mmHg 41%
18:00 +34°C° 0 mm 5 mps 728 mmHg 46%
19:00 +34°C° 0 mm 4 mps 729 mmHg 48%
20:00 +33°C° 0 mm 4 mps 729 mmHg 49%
21:00 +33°C° 0 mm 3 mps 730 mmHg 51%
22:00 +31°C° 0 mm 3 mps 730 mmHg 55%
23:00 +31°C° 0 mm 3 mps 730 mmHg 58%

Day after tomorrow, 24 September, Thursday

Time Temperature Precipitation Wind Pressure Humidity
00:00 +30°C° 0 mm 2 mps 730 mmHg 62%
01:00 +30°C° 0 mm 2 mps 730 mmHg 64%
02:00 +29°C° 0 mm 2 mps 729 mmHg 66%
03:00 +29°C° 0 mm 3 mps 729 mmHg 69%
04:00 +28°C° 0 mm 3 mps 729 mmHg 71%
05:00 +28°C° 0 mm 3 mps 729 mmHg 73%
06:00 +28°C° 0 mm 3 mps 729 mmHg 76%
07:00 +29°C° 0 mm 3 mps 730 mmHg 70%
08:00 +30°C° 0 mm 4 mps 730 mmHg 65%
09:00 +33°C° 0 mm 4 mps 731 mmHg 60%
10:00 +34°C° 0 mm 4 mps 731 mmHg 54%
11:00 +35°C° 0 mm 4 mps 730 mmHg 49%
12:00 +37°C° 0 mm 4 mps 730 mmHg 44%
13:00 +38°C° 0 mm 3 mps 729 mmHg 41%
14:00 +37°C° 0 mm 1 mps 729 mmHg 38%
15:00 +36°C° 0 mm 0 mps 728 mmHg 35%
16:00 +35°C° 0 mm 0 mps 728 mmHg 36%
17:00 +37°C° 0 mm 1 mps 728 mmHg 38%
18:00 +37°C° 0 mm 1 mps 728 mmHg 39%
19:00 +36°C° 0 mm 2 mps 728 mmHg 43%
20:00 +35°C° 0 mm 3 mps 729 mmHg 46%
21:00 +34°C° 0 mm 4 mps 729 mmHg 50%
22:00 +33°C° 0.1 mm 4 mps 729 mmHg 54%
23:00 +32°C° 0.1 mm 5 mps 729 mmHg 58%

25 September, Friday

Time Temperature Precipitation Wind Pressure Humidity
00:00 +30°C° 0.1 mm 5 mps 729 mmHg 63%
01:00 +30°C° 0 mm 4 mps 729 mmHg 64%
02:00 +30°C° 0 mm 4 mps 729 mmHg 64%
03:00 +29°C° 0 mm 4 mps 728 mmHg 65%
04:00 +29°C° 0 mm 4 mps 729 mmHg 68%
05:00 +28°C° 0 mm 3 mps 729 mmHg 70%
06:00 +28°C° 0 mm 3 mps 729 mmHg 73%
07:00 +29°C° 0 mm 4 mps 730 mmHg 67%
08:00 +32°C° 0 mm 5 mps 730 mmHg 61%
09:00 +33°C° 0 mm 5 mps 731 mmHg 55%
10:00 +35°C° 0 mm 5 mps 730 mmHg 50%
11:00 +36°C° 0 mm 5 mps 730 mmHg 45%
12:00 +39°C° 0 mm 5 mps 730 mmHg 40%
13:00 +38°C° 0 mm 4 mps 729 mmHg 37%
14:00 +40°C° 0 mm 4 mps 728 mmHg 35%
15:00 +39°C° 0 mm 3 mps 728 mmHg 32%
16:00 +38°C° 0 mm 3 mps 728 mmHg 35%
17:00 +37°C° 0 mm 3 mps 728 mmHg 39%
18:00 +36°C° 0 mm 4 mps 727 mmHg 42%
19:00 +35°C° 0 mm 4 mps 728 mmHg 47%
20:00 +34°C° 0 mm 4 mps 728 mmHg 51%
21:00 +33°C° 0 mm 5 mps 729 mmHg 56%
22:00 +32°C° 0 mm 5 mps 728 mmHg 62%
23:00 +30°C° 0 mm 6 mps 728 mmHg 68%

26 September, Saturday

Time Temperature Precipitation Wind Pressure Humidity
00:00 +29°C° 0 mm 6 mps 728 mmHg 74%
01:00 +29°C° 0 mm 5 mps 728 mmHg 73%
02:00 +29°C° 0 mm 5 mps 727 mmHg 72%
03:00 +29°C° 0 mm 4 mps 727 mmHg 71%
04:00 +28°C° 0 mm 4 mps 727 mmHg 72%
05:00 +28°C° 0 mm 3 mps 727 mmHg 74%
06:00 +27°C° 0 mm 3 mps 727 mmHg 75%
07:00 +29°C° 0 mm 4 mps 728 mmHg 69%
08:00 +30°C° 0 mm 4 mps 729 mmHg 63%
09:00 +32°C° 0 mm 5 mps 729 mmHg 58%
10:00 +34°C° 0 mm 5 mps 729 mmHg 52%
11:00 +36°C° 0 mm 5 mps 729 mmHg 46%
12:00 +37°C° 0 mm 5 mps 729 mmHg 40%
13:00 +39°C° 0 mm 5 mps 728 mmHg 38%
14:00 +39°C° 0 mm 5 mps 727 mmHg 36%
15:00 +40°C° 0 mm 5 mps 727 mmHg 35%
16:00 +38°C° 0 mm 4 mps 727 mmHg 38%
17:00 +36°C° 0 mm 4 mps 727 mmHg 41%
18:00 +35°C° 0 mm 4 mps 726 mmHg 44%
19:00 +35°C° 0 mm 4 mps 727 mmHg 46%
20:00 +34°C° 0 mm 4 mps 728 mmHg 49%
21:00 +33°C° 0 mm 4 mps 728 mmHg 51%
22:00 +32°C° 0.1 mm 4 mps 728 mmHg 54%
23:00 +31°C° 0.1 mm 3 mps 728 mmHg 56%

27 September, Sunday

Time Temperature Precipitation Wind Pressure Humidity
00:00 +30°C° 0.1 mm 3 mps 728 mmHg 59%
01:00 +30°C° 0 mm 4 mps 728 mmHg 61%
02:00 +29°C° 0 mm 5 mps 727 mmHg 64%
03:00 +29°C° 0 mm 6 mps 727 mmHg 66%
04:00 +29°C° 0 mm 6 mps 727 mmHg 68%
05:00 +29°C° 0 mm 5 mps 727 mmHg 69%
06:00 +28°C° 0 mm 4 mps 727 mmHg 71%
07:00 +29°C° 0 mm 5 mps 728 mmHg 67%
08:00 +30°C° 0 mm 6 mps 728 mmHg 64%
09:00 +32°C° 0 mm 7 mps 729 mmHg 61%
10:00 +33°C° 0 mm 6 mps 728 mmHg 55%
11:00 +35°C° 0 mm 5 mps 728 mmHg 49%
12:00 +37°C° 0 mm 4 mps 728 mmHg 43%
13:00 +37°C° 0 mm 3 mps 727 mmHg 40%
14:00 +38°C° 0 mm 3 mps 727 mmHg 36%
15:00 +39°C° 0 mm 2 mps 727 mmHg 33%
16:00 +37°C° 0.2 mm 2 mps 726 mmHg 38%
17:00 +36°C° 0.2 mm 2 mps 726 mmHg 42%
18:00 +35°C° 0.2 mm 3 mps 726 mmHg 47%
19:00 +32°C° 1.5 mm 2 mps 727 mmHg 53%
20:00 +30°C° 1.5 mm 2 mps 728 mmHg 60%
21:00 +29°C° 1.5 mm 2 mps 728 mmHg 66%
22:00 +29°C° 0.3 mm 3 mps 728 mmHg 66%
23:00 +28°C° 0.3 mm 4 mps 729 mmHg 66%
Show more